Sacramento, CA

10:06 PM PDT on June 28, 2017 (GMT -0700)
Sacramento Executive

Weather History for KSAC - December, 2012

Change the Weather History Date:

Friday, December 21, 2012

  Actual Average Record
Temperature  
Mean Temperature 48 °F -  
Max Temperature 53 °F 53 °F 70 °F (1999)
Min Temperature 43 °F 38 °F 22 °F (1990)
Degree Days  
Heating Degree Days 17    
Cooling Degree Days 0    
Moisture  
Dew Point 35 °F    
Average Humidity 60    
Maximum Humidity 71    
Minimum Humidity 49    
Precipitation  
Precipitation 0.16 in 0.12 in 1.53 in (1982)
Month to date precipitation 3.13 2.11  
Year to date precipitation 18.13 17.38  
Since 1 July precipitation 8.27  
Sea Level Pressure  
Sea Level Pressure 29.94 in    
Wind  
Wind Speed 11 mph (SSE)    
Max Wind Speed 23 mph    
Max Gust Speed 32 mph    
Visibility 8 miles    
Events Rain    
T = Trace of Precipitation, MM = Missing Value Source: NWS Daily Summary

Daily Weather History Graph

Daily Weather History Graph

Search for Another Location

Airport or City:

Trip Planner

Search our weather history database for the weather conditions in past years. The results will help you decide how hot, cold, wet, or windy it might be!

Date:

Astronomy

Dec. 21, 2012 Rise Set
Actual Time 7:20 AM PST 4:48 PM PST
Civil Twilight 6:50 AM PST 5:18 PM PST
Nautical Twilight 6:17 AM PST 5:51 PM PST
Astronomical Twilight 5:44 AM PST 6:24 PM PST
Moon 12:35 PM PST (12/21) 1:15 AM PST (12/21)
Length of Visible Light 10h 28m
Length of Day
9h 28m
Waxing Gibbous, 66% of the Moon is Illuminated
Dec 21
Waxing Gibbous
Dec 28
Full
Jan 4
Last Quarter
Jan 11
New
Jan 18
First Quarter

Hourly Weather History & Observations

Time (PST) Temp. Windchill Dew Point Humidity Pressure Visibility Wind Dir Wind Speed Gust Speed Precip Events Conditions
12:53 AM 45.0 °F 38.5 °F 28.9 °F 53% 30.00 in 10.0 mi SE 13.8 mph - N/A   Clear
1:53 AM 46.0 °F 40.6 °F 28.9 °F 51% 29.99 in 10.0 mi SE 11.5 mph 20.7 mph N/A   Clear
2:53 AM 44.1 °F 39.5 °F 28.0 °F 53% 29.98 in 10.0 mi SE 8.1 mph - N/A   Clear
3:53 AM 45.0 °F 39.3 °F 27.0 °F 49% 29.96 in 10.0 mi SSE 11.5 mph - N/A   Clear
4:53 AM 46.0 °F 40.6 °F 28.9 °F 51% 29.95 in 10.0 mi SE 11.5 mph 18.4 mph N/A   Scattered Clouds
5:53 AM 46.0 °F 41.4 °F 30.9 °F 56% 29.95 in 10.0 mi SE 9.2 mph - N/A   Mostly Cloudy
6:53 AM 46.0 °F 42.5 °F 32.0 °F 58% 29.96 in 10.0 mi SSE 6.9 mph - 0.00 in Rain Light Rain
7:53 AM 45.0 °F 40.1 °F 30.9 °F 58% 29.96 in 10.0 mi SE 9.2 mph - 0.00 in   Overcast
8:53 AM 46.0 °F 41.9 °F 28.9 °F 51% 29.96 in 5.0 mi SE 8.1 mph - 0.00 in Rain Light Rain
9:53 AM 43.0 °F 38.8 °F 34.0 °F 71% 29.97 in 3.0 mi SE 6.9 mph - 0.07 in Rain Rain
10:53 AM 44.1 °F 38.1 °F 34.0 °F 68% 29.96 in 7.0 mi ESE 11.5 mph - 0.08 in Rain Light Rain
11:53 AM 46.0 °F 39.9 °F 35.1 °F 66% 29.95 in 10.0 mi ESE 13.8 mph 20.7 mph 0.01 in Rain Light Rain
12:53 PM 46.0 °F 40.6 °F 37.9 °F 73% 29.94 in 10.0 mi SE 11.5 mph - 0.00 in Rain Light Rain
1:53 PM 50.0 °F - 35.1 °F 57% 29.91 in 10.0 mi SE 13.8 mph 18.4 mph 0.00 in   Overcast
2:53 PM 52.0 °F - 35.1 °F 53% 29.92 in 10.0 mi SE 12.7 mph 17.3 mph 0.00 in   Overcast
3:53 PM 52.0 °F - 37.0 °F 57% 29.91 in 10.0 mi SE 10.4 mph 24.2 mph 0.00 in Rain Light Rain
4:53 PM 55.0 °F - 32.0 °F 42% 29.88 in 10.0 mi SSE 13.8 mph 23.0 mph 0.00 in   Overcast
5:53 PM 54.0 °F - 34.0 °F 47% 29.92 in 10.0 mi South 8.1 mph - 0.00 in   Overcast
6:53 PM 52.0 °F - 37.9 °F 59% 29.94 in 10.0 mi SSE 10.4 mph - N/A   Overcast
7:24 PM 48.2 °F - 42.8 °F 82% 29.95 in 2.5 mi SSE 11.5 mph 19.6 mph 0.00 in Rain Rain
7:53 PM 46.9 °F - 43.0 °F 86% 29.95 in 2.5 mi SSE 10.4 mph 17.3 mph 0.10 in Rain Rain
8:04 PM 46.4 °F 42.4 °F 42.8 °F 87% 29.95 in 6.0 mi South 8.1 mph - 0.02 in Rain Light Rain
8:53 PM 46.9 °F - 44.1 °F 90% 29.95 in 4.0 mi SSW 3.5 mph - 0.09 in Rain Light Rain
9:53 PM 46.9 °F - 44.1 °F 90% 29.93 in 8.0 mi WSW 6.9 mph - 0.07 in   Overcast
10:53 PM 50.0 °F - 43.0 °F 77% 29.90 in 10.0 mi South 6.9 mph - 0.01 in   Overcast
11:53 PM 52.0 °F - 39.9 °F 63% 29.88 in 10.0 mi SSE 13.8 mph 23.0 mph 0.00 in   Overcast